sat.trackr.live / text

‹ back to catalog

STARLINK-37572

NORAD 69448 · 2026-127F

PAYLOAD ACTIVE UNKNOWN

§ Identity

Operator
Country
US
Launch date
2026-06-08
Launch site
AFETR
Launch vehicle
Mass (kg)
RCS (m²)

Purposes: comms

External: N2YO · Heavens-Above · Gunter

§ Orbital elements

Epoch: 2026-09-20T02:40:15.509568Z

Period
93.85 min
Inclination
53.1586°
Eccentricity
0.0001099
Mean motion
15.34401630 rev/d
Perigee alt
461.9 km
Apogee alt
463.5 km
Semi-major
6,840.8 km
B*
4.5886e-4
RAAN
167.4465°
Arg perigee
102.0613°
Mean anomaly
258.0512°
Rev number
1,613

§ Raw data

STARLINK-375721 69448U 26127F   26263.11129062  .00015159  00000+0  45886-3 0  99942 69448  53.1586 167.4465 0001099 102.0613 258.0512 15.34401630 16137

JSON: /api/v1/satellites/69448 · /tle

For live sub-satellite position, see the globe view (requires WebGL).

§ Visibility from observer

Set your observer location to see the next 7 days of passes ≥ 10°. The values pass through the URL so the page stays shareable.

No JS? Fill the form by hand. The geolocation button needs JavaScript.